BREEZE-M R/B, 36102

Orbit data source: Space-Track

BREEZE-M R/B, 36102 is space debris in HEO originally from a launch on Tue, 24 Nov 2009 UTC launched from the Tyuratam Missile And Space Complex (TTMTR). Debris objects in space refer to the collection of defunct objects orbiting the Earth. Examples of debris include non-operational satellites, rocket bodies, and fragments generated from explosions, collisions, or faulty payload assembly.

Loading next visibility...
Identifier
36102, 2009-065B
Orbit
HEO
Country
Flag of CISCIS
Related business
Manufacturer
Khrunichev
Mission
Spacecraft
Bus & Motor
BRIZ, Unknown motor
Mass
~1,600 kg wet, 1,600 kg dry
Launch date (UTC)
2009-11-24 (16 years ago)
Launch vehicle
Unknown
Launch site
Tyuratam Missile And Space Complex (TTMTR)
Object type
Payload
Rocket body
Debris
Shape & HBR
Cyl, 2.0 m
Radar Cross Section
15.135 m², Large (>1 m²)

Expand to show TLE details & history
Last TLE update: 1 day ago

TLE from 1 day ago
0 BREEZE-M R/B
1 36102U 09065B   26126.41956918 -.00000005  00000-0  00000+0 0  9997
2 36102  20.4792 233.6756 5916463 233.6559  68.0410  2.20879841132519
Epoch: 2026-05-06T10:04Z
TLE epoch observation values (Epoch: 2026-05-06T10:04:10.777Z)
Latitude
2.94374°
Longitude
-133.70458°
Altitude
21,420.873 km
Speed
3.56 km/s
True Right ascension
16h 06m 28s
True Declination
2° 56' 21"
Sunlit
Object was in daylight at epoch
Visualization orbit readout
Latitude
Unknown
Longitude
Unknown
Altitude
Unknown
Speed
Unknown
Apparent Right ascension
Unknown
Apparent Declination
Unknown
Sunlit
N/A
Visualization observer readout
Local Sidereal Time
00:16:07
Azimuth
Unknown
Elevation
Unknown
Doppler factor
Unknown
Orbital elements
Apogee altitude
33,267.25 km
Perigee altitude
3,793.307 km
Semi-major axis
24,908.415 km
Eccentricity
0.59165
Inclination
20.4792°
RAAN
233.6756°
Arg. of periapsis
233.6559°
True anomaly
134.88072°
Mean anomaly
68.041°
Eccentric anomaly
101.28449°
Mean motion
0.55211 °/min
Orbital period
652.05 mins
BSTAR
0
Loading maneuver chart data...
Computing Atmospheric mass density...
Loading historical data...
Loading historical data...
Loading historical data...
Loading historical data...
Loading historical data...
Loading historical data...
Loading historical data...
Other satellites on launch #65 in the year 2009 (2009-11-24 UTC)

Documentation

Showing up to 5 results
|